When you browse on this site, cookies collect data to enhance your experience and personalize the content and advertising you see.
Visit our Privacy Policy to learn more. By continuing to use the site, you agree to this use of cookies and data.
  • In Schweiz
  • Länderverzeichnis
  • Für 7 Tage
  • Wassertemperatur
  • Satellitenkarten
  • Wetterkarte
  • Widgets
  • user-avatar
    Anmelden

    Stündliche Wetter Mayrhofen

    Heute, 27 Mai, Montag

    Zeit Temperatur Niederschläge Wind Luftdruck Luftfeuchtigkeit
    00:00 +4°C° 0 mm 0 m/S 614 mmHg 93%
    01:00 +3°C° 0 mm 0 m/S 614 mmHg 93%
    02:00 +4°C° 0 mm 0 m/S 614 mmHg 93%
    03:00 +5°C° 0 mm 1 m/S 614 mmHg 94%
    04:00 +5°C° 0 mm 1 m/S 614 mmHg 94%
    05:00 +5°C° 0 mm 0 m/S 614 mmHg 92%
    06:00 +6°C° 0 mm 0 m/S 614 mmHg 91%
    07:00 +7°C° 0 mm 0 m/S 614 mmHg 89%
    08:00 +8°C° 0.2 mm 0 m/S 614 mmHg 87%
    09:00 +9°C° 0.2 mm 1 m/S 615 mmHg 85%
    10:00 +10°C° 0.2 mm 1 m/S 615 mmHg 84%
    11:00 +10°C° 0.2 mm 1 m/S 615 mmHg 83%
    12:00 +11°C° 0.2 mm 1 m/S 614 mmHg 82%
    13:00 +11°C° 0.2 mm 1 m/S 614 mmHg 81%
    14:00 +11°C° 0.4 mm 1 m/S 614 mmHg 83%
    15:00 +11°C° 0.4 mm 1 m/S 614 mmHg 86%
    16:00 +10°C° 0.4 mm 1 m/S 613 mmHg 88%
    17:00 +10°C° 1.9 mm 1 m/S 613 mmHg 91%
    18:00 +9°C° 1.9 mm 1 m/S 612 mmHg 95%
    19:00 +7°C° 1.9 mm 0 m/S 612 mmHg 98%
    20:00 +7°C° 3.2 mm 0 m/S 612 mmHg 98%
    21:00 +7°C° 3.2 mm 1 m/S 611 mmHg 99%
    22:00 +7°C° 3.2 mm 1 m/S 611 mmHg 99%
    23:00 +6°C° 3.5 mm 0 m/S 611 mmHg 99%

    Morgen, 28 Mai, Dienstag

    Zeit Temperatur Niederschläge Wind Luftdruck Luftfeuchtigkeit
    00:00 +5°C° 3.5 mm 0 m/S 611 mmHg 99%
    01:00 +5°C° 3.5 mm 0 m/S 611 mmHg 99%
    02:00 +5°C° 3 mm 0 m/S 610 mmHg 99%
    03:00 +6°C° 3 mm 1 m/S 610 mmHg 99%
    04:00 +6°C° 3 mm 1 m/S 610 mmHg 99%
    05:00 +6°C° 1.3 mm 1 m/S 610 mmHg 99%
    06:00 +6°C° 1.3 mm 1 m/S 610 mmHg 98%
    07:00 +6°C° 1.3 mm 1 m/S 610 mmHg 98%
    08:00 +5°C° 0.8 mm 2 m/S 610 mmHg 98%
    09:00 +5°C° 0.8 mm 2 m/S 610 mmHg 97%
    10:00 +5°C° 0.8 mm 2 m/S 610 mmHg 97%
    11:00 +5°C° 0.9 mm 2 m/S 610 mmHg 97%
    12:00 +5°C° 0.9 mm 2 m/S 611 mmHg 96%
    13:00 +4°C° 0.9 mm 3 m/S 611 mmHg 96%
    14:00 +4°C° 1 mm 3 m/S 611 mmHg 96%
    15:00 +3°C° 1 mm 3 m/S 611 mmHg 97%
    16:00 +3°C° 1 mm 3 m/S 611 mmHg 97%
    17:00 +3°C° 1.1 mm 3 m/S 611 mmHg 97%
    18:00 +2°C° 1.1 mm 3 m/S 611 mmHg 97%
    19:00 +2°C° 1.1 mm 3 m/S 611 mmHg 97%
    20:00 +1°C° 0.6 mm 3 m/S 612 mmHg 97%
    21:00 +2°C° 0.6 mm 2 m/S 612 mmHg 96%
    22:00 +2°C° 0.6 mm 2 m/S 612 mmHg 96%
    23:00 +1°C° 0.5 mm 2 m/S 612 mmHg 95%

    übermorgen, 29 Mai, Mittwoch

    Zeit Temperatur Niederschläge Wind Luftdruck Luftfeuchtigkeit
    00:00 +1°C° 0.5 mm 2 m/S 612 mmHg 95%
    01:00 +1°C° 0.5 mm 2 m/S 612 mmHg 95%
    02:00 +1°C° 0.9 mm 2 m/S 612 mmHg 95%
    03:00 +1°C° 0.9 mm 2 m/S 613 mmHg 95%
    04:00 +1°C° 0.9 mm 2 m/S 613 mmHg 96%
    05:00 +1°C° 0.9 mm 2 m/S 613 mmHg 96%
    06:00 +1°C° 0.9 mm 2 m/S 613 mmHg 96%
    07:00 0°C° 0.9 mm 3 m/S 614 mmHg 96%
    08:00 +1°C° 0.4 mm 3 m/S 614 mmHg 94%
    09:00 +2°C° 0.4 mm 3 m/S 615 mmHg 93%
    10:00 +2°C° 0.4 mm 3 m/S 615 mmHg 91%
    11:00 +3°C° 0.2 mm 3 m/S 615 mmHg 89%
    12:00 +4°C° 0.2 mm 3 m/S 616 mmHg 86%
    13:00 +4°C° 0.2 mm 3 m/S 616 mmHg 84%
    14:00 +5°C° 0.2 mm 3 m/S 616 mmHg 83%
    15:00 +5°C° 0.2 mm 3 m/S 616 mmHg 83%
    16:00 +5°C° 0.2 mm 3 m/S 616 mmHg 83%
    17:00 +5°C° 0.1 mm 2 m/S 616 mmHg 86%
    18:00 +5°C° 0.1 mm 2 m/S 616 mmHg 89%
    19:00 +4°C° 0.1 mm 2 m/S 616 mmHg 92%
    20:00 +3°C° 0.1 mm 2 m/S 617 mmHg 93%
    21:00 +3°C° 0.1 mm 2 m/S 617 mmHg 94%
    22:00 +2°C° 0.1 mm 2 m/S 617 mmHg 95%
    23:00 +2°C° 0.1 mm 2 m/S 617 mmHg 95%

    30 Mai, Donnerstag

    Zeit Temperatur Niederschläge Wind Luftdruck Luftfeuchtigkeit
    00:00 +1°C° 0.1 mm 2 m/S 617 mmHg 94%
    01:00 +1°C° 0.1 mm 2 m/S 617 mmHg 93%
    02:00 -1°C° 0 mm 2 m/S 617 mmHg 93%
    03:00 -2°C° 0 mm 2 m/S 617 mmHg 92%
    04:00 -2°C° 0 mm 2 m/S 616 mmHg 92%
    05:00 +2°C° 0 mm 1 m/S 617 mmHg 88%
    06:00 +3°C° 0 mm 1 m/S 618 mmHg 85%
    07:00 +5°C° 0 mm 1 m/S 619 mmHg 81%
    08:00 +6°C° 0.1 mm 1 m/S 619 mmHg 80%
    09:00 +6°C° 0.1 mm 1 m/S 619 mmHg 79%
    10:00 +7°C° 0.1 mm 1 m/S 619 mmHg 78%
    11:00 +7°C° 0.2 mm 1 m/S 620 mmHg 78%
    12:00 +8°C° 0.2 mm 1 m/S 620 mmHg 78%
    13:00 +8°C° 0.2 mm 2 m/S 620 mmHg 78%
    14:00 +8°C° 0.1 mm 2 m/S 620 mmHg 78%
    15:00 +8°C° 0.1 mm 2 m/S 620 mmHg 79%
    16:00 +9°C° 0.1 mm 2 m/S 621 mmHg 79%
    17:00 +8°C° 0.1 mm 2 m/S 620 mmHg 83%
    18:00 +7°C° 0.1 mm 2 m/S 620 mmHg 88%
    19:00 +7°C° 0.1 mm 1 m/S 620 mmHg 93%
    20:00 +7°C° 0.1 mm 1 m/S 620 mmHg 93%
    21:00 +6°C° 0.1 mm 1 m/S 620 mmHg 94%
    22:00 +6°C° 0.1 mm 1 m/S 620 mmHg 94%
    23:00 +6°C° 0.1 mm 1 m/S 620 mmHg 93%

    31 Mai, Freitag

    Zeit Temperatur Niederschläge Wind Luftdruck Luftfeuchtigkeit
    00:00 +6°C° 0.1 mm 1 m/S 619 mmHg 92%
    01:00 +5°C° 0.1 mm 1 m/S 619 mmHg 91%
    02:00 +5°C° 0.1 mm 1 m/S 619 mmHg 91%
    03:00 +5°C° 0.1 mm 1 m/S 619 mmHg 91%
    04:00 +5°C° 0.1 mm 1 m/S 618 mmHg 91%
    05:00 +6°C° 0.1 mm 1 m/S 619 mmHg 89%
    06:00 +7°C° 0.1 mm 1 m/S 619 mmHg 86%
    07:00 +8°C° 0.1 mm 1 m/S 619 mmHg 84%
    08:00 +8°C° 1 mm 1 m/S 619 mmHg 88%
    09:00 +7°C° 1 mm 1 m/S 619 mmHg 92%
    10:00 +6°C° 1 mm 2 m/S 619 mmHg 96%
    11:00 +6°C° 0.9 mm 2 m/S 619 mmHg 95%
    12:00 +6°C° 0.9 mm 2 m/S 620 mmHg 95%
    13:00 +6°C° 0.9 mm 2 m/S 620 mmHg 94%
    14:00 +5°C° 0.4 mm 3 m/S 620 mmHg 93%
    15:00 +5°C° 0.4 mm 3 m/S 620 mmHg 93%
    16:00 +4°C° 0.4 mm 3 m/S 620 mmHg 93%
    17:00 +4°C° 0.3 mm 3 m/S 620 mmHg 93%
    18:00 +3°C° 0.3 mm 3 m/S 620 mmHg 94%
    19:00 +2°C° 0.3 mm 3 m/S 621 mmHg 95%
    20:00 +1°C° 0 mm 3 m/S 621 mmHg 95%
    21:00 +2°C° 0 mm 2 m/S 621 mmHg 96%
    22:00 +1°C° 0 mm 2 m/S 622 mmHg 97%
    23:00 -1°C° 0 mm 2 m/S 622 mmHg 96%

    1 Juni, Samstag

    Zeit Temperatur Niederschläge Wind Luftdruck Luftfeuchtigkeit
    00:00 -2°C° 0 mm 2 m/S 622 mmHg 95%
    01:00 -2°C° 0 mm 2 m/S 622 mmHg 95%
    02:00 -3°C° 0 mm 2 m/S 622 mmHg 93%
    03:00 -3°C° 0 mm 2 m/S 622 mmHg 92%
    04:00 -4°C° 0 mm 2 m/S 621 mmHg 90%
    05:00 -2°C° 0 mm 2 m/S 622 mmHg 84%
    06:00 +1°C° 0 mm 2 m/S 623 mmHg 77%
    07:00 +2°C° 0 mm 2 m/S 623 mmHg 70%
    08:00 +4°C° 0 mm 2 m/S 624 mmHg 64%
    09:00 +6°C° 0 mm 2 m/S 624 mmHg 57%
    10:00 +7°C° 0 mm 3 m/S 624 mmHg 50%
    11:00 +8°C° 0 mm 3 m/S 624 mmHg 49%
    12:00 +9°C° 0 mm 3 m/S 625 mmHg 49%
    13:00 +10°C° 0 mm 3 m/S 625 mmHg 48%
    14:00 +9°C° 0 mm 3 m/S 625 mmHg 50%
    15:00 +9°C° 0 mm 3 m/S 624 mmHg 51%
    16:00 +9°C° 0 mm 3 m/S 624 mmHg 52%
    17:00 +8°C° 0 mm 3 m/S 624 mmHg 57%
    18:00 +7°C° 0 mm 3 m/S 624 mmHg 62%
    19:00 +6°C° 0 mm 2 m/S 623 mmHg 67%
    20:00 +4°C° 0 mm 2 m/S 623 mmHg 72%
    21:00 +2°C° 0 mm 2 m/S 623 mmHg 78%
    22:00 +1°C° 0 mm 1 m/S 622 mmHg 83%
    23:00 +1°C° 0 mm 1 m/S 622 mmHg 79%
    Mehr zeigen